Weather History for KAJG - October, 2012

Change the Weather History Date:

Friday, October 5, 2012

  Actual Average (KLWV) Record (KLWV)
Temperature  
Mean Temperature 54 °F 62 °F  
Max Temperature 64 °F 74 °F 91 °F (2007)
Min Temperature 44 °F 49 °F 33 °F (1999)
Degree Days  
Heating Degree Days 11 5  
Month to date heating degree days 24  
Since 1 July heating degree days 63  
Cooling Degree Days 0 2  
Month to date cooling degree days 11  
Year to date cooling degree days 1365  
Growing Degree Days 4 (Base 50)    
Moisture  
Dew Point 48 °F    
Average Humidity 82    
Maximum Humidity 94    
Minimum Humidity 59    
Precipitation  
Precipitation 0.77 in 0.14 in 3.56 in (1983)
Month to date precipitation 0.77  
Year to date precipitation 33.31  
Sea Level Pressure  
Sea Level Pressure 30.14 in    
Wind  
Wind Speed 6 mph (North)    
Max Wind Speed 15 mph    
Max Gust Speed 22 mph    
Visibility 9 miles    
Events Rain , Thunderstorm    
T = Trace of Precipitation, MM = Missing Value Source: NWS Daily Summary

Daily Weather History Graph

Daily Weather History Graph

Search for Another Location

Airport or City:

Trip Planner

Search our weather history database for the weather conditions in past years. The results will help you decide how hot, cold, wet, or windy it might be!

Date:

Astronomy

Oct. 05, 2012 Rise Set
Actual Time 6:50 AM CDT 6:26 PM CDT
Civil Twilight 6:24 AM CDT 6:53 PM CDT
Nautical Twilight 5:53 AM CDT 7:23 PM CDT
Astronomical Twilight 5:22 AM CDT 7:54 PM CDT
Moon 9:53 PM CDT (10/5) 11:55 AM CDT (10/5)
Length of Visible Light 12h 28m
Length of Day
11h 35m
Waning Gibbous, 74% of the Moon is Illuminated
Oct 5
Waning Gibbous
Oct 8
Last Quarter
Oct 15
New
Oct 21
First Quarter
Oct 29
Full

Hourly Weather History & Observations

Time (CDT) Temp. Windchill Dew Point Humidity Pressure Visibility Wind Dir Wind Speed Gust Speed Precip Events Conditions
12:15 AM 62.6 °F - 57.2 °F 82% 30.13 in 10.0 mi Calm Calm - N/A   Clear
12:35 AM 64.4 °F - 59.0 °F 83% 30.14 in 10.0 mi WNW 5.8 mph 18.4 mph N/A   Clear
12:55 AM 62.6 °F - 57.2 °F 82% 30.14 in 10.0 mi NNW 8.1 mph - N/A   Clear
1:15 AM 62.6 °F - 55.4 °F 77% 30.14 in 10.0 mi NW 4.6 mph - N/A   Clear
1:35 AM 60.8 °F - 53.6 °F 77% 30.14 in 10.0 mi NNW 6.9 mph - N/A   Clear
1:55 AM 59.0 °F - 53.6 °F 82% 30.14 in 10.0 mi NW 4.6 mph - N/A   Clear
2:15 AM 59.0 °F - 53.6 °F 82% 30.15 in 10.0 mi NNW 5.8 mph - N/A   Clear
2:35 AM 59.0 °F - 51.8 °F 77% 30.15 in 10.0 mi NNW 6.9 mph - N/A   Clear
2:55 AM 57.2 °F - 51.8 °F 82% 30.14 in 10.0 mi NNW 3.5 mph - N/A   Clear
3:15 AM 55.4 °F - 51.8 °F 88% 30.14 in 10.0 mi NNW 3.5 mph - N/A   Clear
3:35 AM 55.4 °F - 51.8 °F 88% 30.14 in 10.0 mi NNW 3.5 mph - N/A   Clear
3:55 AM 55.4 °F - 51.8 °F 88% 30.16 in 10.0 mi NNW 8.1 mph - N/A   Clear
4:15 AM 55.4 °F - 51.8 °F 88% 30.16 in 10.0 mi North 6.9 mph - N/A   Clear
4:35 AM 55.4 °F - 51.8 °F 88% 30.16 in 10.0 mi NNW 5.8 mph - N/A   Clear
4:55 AM 53.6 °F - 51.8 °F 94% 30.15 in 10.0 mi NNW 6.9 mph - N/A   Clear
5:15 AM 53.6 °F - 51.8 °F 94% 30.16 in 10.0 mi North 3.5 mph - N/A   Clear
5:35 AM 53.6 °F - 50.0 °F 88% 30.15 in 10.0 mi NNW 3.5 mph - N/A   Clear
5:55 AM 53.6 °F - 50.0 °F 88% 30.16 in 10.0 mi NNW 3.5 mph - N/A   Scattered Clouds
6:15 AM 53.6 °F - 50.0 °F 88% 30.17 in 10.0 mi North 5.8 mph - N/A   Clear
6:35 AM 53.6 °F - 46.4 °F 77% 30.15 in 10.0 mi NE 5.8 mph - N/A   Clear
6:55 AM 53.6 °F - 46.4 °F 77% 30.17 in 10.0 mi North 6.9 mph - N/A   Clear
7:15 AM 53.6 °F - 46.4 °F 77% 30.17 in 10.0 mi Calm Calm - N/A   Clear
7:35 AM 53.6 °F - 48.2 °F 82% 30.17 in 10.0 mi North 3.5 mph - N/A   Scattered Clouds
7:55 AM 53.6 °F - 48.2 °F 82% 30.17 in 10.0 mi North 6.9 mph - N/A   Scattered Clouds
8:15 AM 55.4 °F - 46.4 °F 72% 30.16 in 10.0 mi North 9.2 mph - N/A   Mostly Cloudy
8:35 AM 55.4 °F - 48.2 °F 77% 30.16 in 10.0 mi North 5.8 mph - N/A   Clear
8:55 AM 55.4 °F - 48.2 °F 77% 30.17 in 10.0 mi North 6.9 mph - N/A   Clear
9:15 AM 55.4 °F - 46.4 °F 72% 30.19 in 10.0 mi North 9.2 mph - N/A   Clear
9:35 AM 57.2 °F - 46.4 °F 67% 30.18 in 10.0 mi North 13.8 mph 17.3 mph N/A   Scattered Clouds
9:55 AM 57.2 °F - 46.4 °F 67% 30.18 in 10.0 mi North 6.9 mph - N/A   Clear
10:15 AM 59.0 °F - 46.4 °F 63% 30.17 in 10.0 mi North 5.8 mph - N/A   Mostly Cloudy
10:35 AM 59.0 °F - 46.4 °F 63% 30.17 in 10.0 mi North 5.8 mph - N/A   Mostly Cloudy
10:55 AM 59.0 °F - 46.4 °F 63% 30.15 in 10.0 mi NE 6.9 mph - N/A   Overcast
11:15 AM 59.0 °F - 46.4 °F 63% 30.15 in 10.0 mi North 5.8 mph - N/A   Overcast
11:35 AM 59.0 °F - 46.4 °F 63% 30.14 in 10.0 mi North 4.6 mph - N/A   Overcast
11:55 AM 60.8 °F - 48.2 °F 63% 30.14 in 10.0 mi NNW 6.9 mph - N/A   Mostly Cloudy
12:15 PM 60.8 °F - 46.4 °F 59% 30.13 in 10.0 mi North 6.9 mph - N/A   Scattered Clouds
12:35 PM 59.0 °F - 46.4 °F 63% 30.13 in 10.0 mi NNW 10.4 mph - N/A   Mostly Cloudy
12:55 PM 59.0 °F - 46.4 °F 63% 30.12 in 10.0 mi NNW 11.5 mph - N/A   Mostly Cloudy
1:35 PM 55.4 °F - 46.4 °F 72% 30.11 in 10.0 mi NNW 11.5 mph - N/A   Overcast
1:55 PM 53.6 °F - 46.4 °F 77% 30.12 in 10.0 mi NNW 15.0 mph - N/A   Overcast
2:15 PM 51.8 °F - 46.4 °F 82% 30.12 in 10.0 mi NNW 12.7 mph 20.7 mph N/A   Overcast
2:35 PM 51.8 °F - 46.4 °F 82% 30.08 in 10.0 mi NNE 10.4 mph - 0.04 in Rain , Thunderstorm Thunderstorms and Rain
2:55 PM 50.0 °F - 46.4 °F 87% 30.08 in 10.0 mi North 5.8 mph - 0.05 in Rain , Thunderstorm Light Thunderstorms and Rain
3:15 PM 50.0 °F - 48.2 °F 94% 30.09 in 7.0 mi NNW 10.4 mph - 0.02 in Rain Rain
3:35 PM 50.0 °F - 46.4 °F 87% 30.06 in 10.0 mi North 10.4 mph - 0.06 in Rain Rain
3:55 PM 48.2 °F - 46.4 °F 93% 30.08 in 10.0 mi North 10.4 mph - 0.08 in Rain , Thunderstorm Rain
4:15 PM 48.2 °F - 44.6 °F 87% 30.09 in 7.0 mi NNW 12.7 mph 17.3 mph 0.07 in Rain , Thunderstorm Heavy Thunderstorms and Rain
4:35 PM 46.4 °F 40.4 °F 44.6 °F 93% 30.07 in 5.0 mi North 13.8 mph - 0.14 in Rain , Thunderstorm Heavy Thunderstorms and Rain
4:55 PM 46.4 °F 40.4 °F 44.6 °F 93% 30.08 in 2.0 mi NNW 13.8 mph 19.6 mph 0.24 in Rain Light Rain
5:15 PM 46.4 °F 41.5 °F 44.6 °F 93% 30.10 in 1.2 mi NNW 10.4 mph 17.3 mph 0.12 in Rain Light Rain
5:35 PM 46.4 °F 40.7 °F 44.6 °F 93% 30.11 in 10.0 mi NNW 12.7 mph - 0.12 in Rain , Thunderstorm Light Thunderstorms and Rain
5:55 PM 46.4 °F 40.7 °F 44.6 °F 93% 30.11 in 10.0 mi NNW 12.7 mph - 0.13 in Rain Light Rain
6:15 PM 46.4 °F 41.1 °F 44.6 °F 93% 30.10 in 10.0 mi North 11.5 mph 21.9 mph 0.01 in Rain Rain
6:35 PM 46.4 °F 41.1 °F 44.6 °F 93% 30.10 in 7.0 mi North 11.5 mph - 0.05 in Rain Heavy Rain
6:55 PM 44.6 °F 38.4 °F 42.8 °F 93% 30.13 in 10.0 mi NNW 12.7 mph 17.3 mph 0.12 in Rain Light Rain
7:15 PM 44.6 °F 38.4 °F 42.8 °F 93% 30.12 in 10.0 mi North 12.7 mph 19.6 mph 0.03 in Rain , Thunderstorm Light Thunderstorms and Rain
7:35 PM 44.6 °F 38.1 °F 42.8 °F 93% 30.14 in 10.0 mi NNW 13.8 mph 19.6 mph 0.03 in   Overcast
7:55 PM 44.6 °F 40.7 °F 41.0 °F 87% 30.16 in 10.0 mi NNW 6.9 mph 20.7 mph 0.04 in Rain Rain
8:15 PM 44.6 °F 40.2 °F 41.0 °F 87% 30.13 in 10.0 mi North 8.1 mph - N/A Rain , Thunderstorm Rain
8:35 PM 44.6 °F 40.2 °F 41.0 °F 87% 30.13 in 10.0 mi North 8.1 mph - 0.01 in Rain , Thunderstorm Light Thunderstorms and Rain
8:55 PM 44.6 °F 41.4 °F 41.0 °F 87% 30.13 in 3.0 mi North 5.8 mph - 0.08 in Rain Heavy Rain
9:15 PM 44.6 °F 41.4 °F 42.8 °F 93% 30.12 in 10.0 mi North 5.8 mph - 0.03 in Rain , Thunderstorm Heavy Thunderstorms and Rain